CAPE
1490 1603 1783 1507 1393 1551 1185 681 409 232 24 0 0 11 66 53 22 67 88 77 72 27 50 47 88 90 94 56 95 68 77 0 0 1 3 1 1 1 1 0 0 0 0
1370 1595 1806 1940 1611 1097 1119 637 412 218 33 0 0 0 0 8 1 1 27 85 23 14 55 67 118 252 150 141 117 125 75 0 0 1 3 1 1 2 0 0 0 0 0
747 1702 1944 1947 1365 1116 927 820 643 355 183 59 17 4 0 0 0 0 3 6 32 9 2 1 17 123 156 40 9 3 1 0 0 0 1 1 1 1 1 0 0 0 0
1939 1941 1999 1604 1468 1179 1125 1023 748 564 409 296 86 0 0 0 0 62 28 0 0 0 0 0 2 21 77 15 0 0 0 0 2 0 3 0 0 0 1 1 1 0 2
2075 1953 1782 1431 1292 1107 1129 1029 904 594 490 49 6 0 0 0 0 20 42 0 0 0 0 0 0 0 0 4 0 0 0 0 1 1 1 0 0 0 1 0 1 0 0
1918 1937 1671 1505 1236 1272 1120 1059 756 551 362 80 57 1 0 0 0 0 21 11 0 0 0 0 0 0 0 0 0 0 0 0 0 0 1 0 0 0 0 0 0 0 0
2172 1934 1778 1424 1313 1169 1052 936 733 463 235 197 131 46 0 0 0 0 0 0 0 0 0 0 0 0 0 0 0 0 0 0 0 0 0 0 0 0 0 0 0 0 0
1736 978 1056 1061 574 315 225 137 202 311 288 175 128 91 88 0 0 0 0 0 0 0 0 0 0 0 0 0 0 0 0 0 0 0 0 0 0 0 0 0 0 0 0
137 3 0 0 0 0 11 0 0 200 297 207 166 120 79 0 0 0 0 0 0 0 0 0 0 0 0 0 0 0 0 0 0 0 0 0 0 0 0 0 0 0 0
4 0 0 0 10 10 44 7 19 0 191 317 240 220 138 32 0 0 0 0 0 0 0 0 0 0 0 0 0 0 0 0 0 0 0 0 0 0 0 0 0 0 0
0 0 0 0 0 0 0 0 0 0 10 94 326 316 192 111 0 0 0 0 0 0 0 0 0 0 0 0 0 0 0 0 0 0 0 0 0 0 0 0 0 0 0
0 0 0 0 0 0 0 0 4 0 3 157 412 411 213 163 18 0 0 0 0 0 0 0 0 0 0 0 0 0 0 0 0 0 0 0 1 1 0 0 0 0 0
0 0 0 0 0 0 0 0 0 0 0 14 225 474 356 203 101 0 1 2 3 0 0 0 1 1 0 0 0 0 0 0 0 0 0 0 0 0 0 0 0 0 0
190 153 23 1 0 0 17 206 46 105 98 131 499 575 300 77 9 1 2 0 1 0 0 0 0 0 1 0 0 0 0 0 0 0 0 0 0 0 0 0 0 0 0
0 0 1 2 81 125 136 1 0 8 6 371 516 424 22 95 57 0 0 0 0 0 0 0 0 0 0 0 0 0 0 0 0 0 0 0 0 0 0 1 0 0 0
0 0 0 1 1 2 1 0 1 1 1 1 2 78 1 36 3 2 9 2 1 1 1 0 0 0 0 0 0 0 0 0 0 0 0 0 0 0 0 0 1 0 2
0 0 0 0 0 1 1 1 1 1 1 1 1 9 7 0 1 1 1 2 2 1 0 1 5 1 5 21 0 0 0 0 0 0 0 0 0 0 0 0 0 0 0
0 0 0 0 0 0 1 1 1 1 1 1 0 0 1 1 0 1 1 0 0 0 0 0 0 0 0 0 2 0 0 0 0 0 0 0 0 0 0 0 0 0 0
0 0 0 0 0 0 0 0 1 2 1 2 0 0 0 1 1 1 1 0 0 0 0 4 6 2 0 4 1 0 0 0 0 0 0 0 0 0 0 0 0 0 0
2 4 0 0 0 0 0 0 0 2 7 0 0 1 0 0 0 0 0 0 0 0 13 16 0 0 0 0 0 0 0 0 0 0 0 0 0 0 0 0 0 0 0
0 0 0 2 1 0 0 0 0 0 0 10 0 1 0 0 0 0 0 0 2 20 0 0 0 0 0 0 0 0 0 0 0 0 0 0 0 0 0 0 0 0 0
0 0 0 0 1 5 1 0 1 0 0 4 0 0 0 0 3 0 1 0 0 0 0 0 0 0 0 0 0 0 0 0 0 0 0 0 0 0 0 0 0 1 1
0 0 0 0 0 0 0 9 0 1 1 2 9 0 0 0 0 0 0 0 0 0 0 0 0 0 0 0 0 0 0 0 0 0 0 0 0 0 0 0 0 0 0
0 0 0 0 0 0 0 1 1 4 3 0 0 0 0 0 0 0 0 0 0 0 0 0 0 0 0 0 0 0 0 0 0 0 0 0 0 0 0 0 0 0 0
0 0 0 0 0 0 0 0 0 0 0 0 0 0 0 0 0 0 0 0 0 0 0 0 0 0 0 0 0 0 0 0 0 0 0 0 0 0 0 0 0 0 0
0 0 0 0 0 0 0 0 0 0 0 0 0 0 0 0 0 0 0 0 0 0 0 0 0 0 0 0 0 0 0 0 0 0 0 0 0 0 0 0 0 0 0
CIN
-223 -127 -69 -87 -76 -52 -69 -132 -185 -231 -124 0 0 -32 -84 -96 -138 -116 -87 -96 -90 -128 -85 -81 -81 -83 -77 -86 -59 -58 -53 0 0 0 0 0 0 0 0 0 0 0 -1
-268 -153 -112 -83 -100 -134 -126 -183 -214 -233 -281 0 0 0 -4 -87 -89 -78 -140 -81 -126 -132 -90 -84 -55 -35 -71 -82 -93 -73 -82 0 0 0 0 0 0 0 0 0 0 0 0
-423 -166 -134 -124 -203 -231 -229 -198 -197 -201 -182 -186 -54 -39 0 0 0 0 -98 -141 -157 -163 -140 -154 -162 -71 -73 -146 -155 -31 0 0 0 0 0 0 0 0 0 0 0 0 0
-186 -168 -156 -197 -177 -195 -179 -169 -185 -165 -123 -97 -153 0 0 0 0 -102 -93 0 0 0 0 0 -120 -130 -100 -145 0 0 0 0 0 0 0 0 0 0 0 0 0 0 0
-189 -166 -140 -160 -159 -166 -145 -123 -123 -147 -161 -309 -246 0 0 0 0 -151 -116 0 0 0 0 0 0 0 0 -36 0 0 0 0 0 0 0 0 0 0 0 0 0 0 0
-169 -135 -132 -141 -167 -149 -147 -113 -105 -132 -176 -315 -319 -161 0 0 0 0 -88 -100 0 0 0 0 0 0 0 0 -1 0 0 0 0 0 0 0 0 0 0 0 0 0 0
-139 -141 -130 -169 -159 -148 -149 -127 -128 -122 -149 -147 -237 -289 0 0 0 0 0 0 0 0 0 0 0 0 0 0 0 0 0 0 0 0 0 0 0 0 0 0 0 0 0
-174 -316 -288 -226 -308 -410 -384 -321 -188 -128 -137 -118 -140 -201 -271 0 0 0 0 0 0 0 0 0 0 0 0 0 0 0 0 0 0 0 0 0 0 0 0 0 0 0 0
-662 -653 0 0 0 0 -520 -34 -15 -166 -90 -139 -155 -115 -205 0 0 0 0 0 0 0 0 0 0 0 0 0 0 0 0 0 0 0 0 0 0 0 0 0 0 0 0
-878 0 0 0 -618 -581 -449 -702 -765 0 -374 -172 -112 -140 -147 -240 0 0 0 0 0 0 0 0 0 0 0 0 0 0 0 0 0 0 0 0 0 0 0 0 0 0 0
0 0 0 0 0 0 0 0 0 0 -358 -438 -148 -72 -124 -188 0 0 0 0 0 0 0 0 0 0 0 0 0 0 0 0 0 0 0 0 0 0 0 0 0 0 0
0 0 0 0 0 0 0 0 -1 -6 -142 -250 -214 -66 -107 -156 -252 0 0 0 0 0 0 0 0 0 0 0 0 0 0 0 0 0 0 0 0 0 0 0 0 0 0
0 0 0 0 0 0 0 0 0 0 0 -272 -155 -107 -53 -133 -155 0 0 0 0 0 0 0 0 0 0 0 0 0 0 0 0 0 0 0 0 0 0 0 0 0 0
-306 -316 -192 0 0 0 -167 -156 -21 -283 -198 -169 -67 -59 -73 -169 -151 0 0 0 0 0 0 0 0 0 0 0 0 0 0 0 0 0 0 0 0 0 0 0 0 0 0
0 0 0 0 -142 -121 -69 0 0 -227 -128 -68 -58 -71 -168 -127 -109 -49 0 0 0 0 0 0 0 0 0 0 0 0 0 0 0 0 0 0 0 0 0 -38 0 0 0
0 0 0 0 0 0 0 0 0 0 0 0 0 -17 0 -110 -144 0 -150 0 0 0 0 0 0 0 0 0 0 0 0 0 0 0 0 0 0 0 0 0 -17 0 -31
0 0 0 0 0 0 0 0 0 0 0 0 0 -3 -1 0 0 0 0 0 0 0 -8 -1 -55 -76 -81 -92 0 0 0 0 0 0 0 0 0 0 0 0 0 0 0
0 0 0 0 0 0 0 0 0 0 0 0 0 0 0 0 0 0 0 0 0 0 0 0 0 0 0 -28 -101 0 0 0 0 0 0 0 0 0 0 0 0 0 0
0 0 0 0 0 0 0 0 0 0 0 0 0 0 0 0 0 0 0 0 0 0 0 -93 -117 -114 0 -64 0 0 0 0 0 0 0 0 0 0 0 0 0 0 0
-34 -117 0 0 0 0 0 0 0 0 0 0 0 0 0 0 0 0 0 0 0 0 -88 -133 -36 0 0 0 0 0 0 0 0 0 0 0 0 0 0 0 0 0 0
0 0 0 -164 -190 -6 0 0 0 0 0 -3 0 0 0 0 0 0 0 0 -41 -56 -5 0 0 0 0 0 0 0 0 0 0 0 0 0 0 0 0 0 0 0 0
0 0 0 0 -175 -187 -57 0 -77 0 0 -34 -4 0 0 0 -52 0 0 0 0 0 0 0 0 0 0 0 0 0 0 0 0 0 0 0 0 0 0 0 0 -6 -5
0 0 0 0 0 0 0 -146 0 -29 -25 -25 -18 0 0 0 0 0 0 0 0 0 0 0 0 0 0 0 0 0 0 0 0 0 0 0 0 0 0 0 0 0 0
0 0 0 0 0 0 0 -23 0 -88 -101 -23 0 0 0 0 0 0 0 0 0 0 0 0 0 0 0 0 0 0 0 0 0 0 0 0 0 0 0 0 0 0 0
0 0 0 0 0 0 0 0 0 0 0 0 0 0 0 0 0 0 0 0 0 0 0 0 0 0 0 0 0 0 0 0 0 0 0 0 0 0 0 0 0 0 0
0 0 0 0 0 0 0 0 0 0 0 0 0 0 0 0 0 0 0 0 0 0 0 0 0 0 0 0 0 0 0 0 0 0 0 0 0 0 0 0 0 0 0
Wind_Speed
6 6 6 4 5 3 4 4 5 4 5 4 4 4 5 5 5 5 5 4 5 4 3 3 4 3 3 3 3 3 4 4 4 1 1 2 3 4 4 3 4 4 4
6 5 6 7 7 6 6 6 6 6 4 5 4 4 4 3 4 5 5 5 6 5 5 4 3 1 2 3 4 5 5 4 4 6 3 2 2 3 3 4 2 3 3
6 6 6 6 7 8 8 7 7 6 6 5 4 4 4 5 5 4 4 5 6 5 4 4 4 3 1 1 2 4 5 4 3 5 3 1 2 3 3 3 3 3 2
7 6 6 6 6 6 6 7 7 6 6 5 6 6 5 5 5 5 5 4 4 4 5 4 2 1 2 3 3 5 5 5 6 6 4 3 3 2 2 4 3 1 1
7 5 3 3 4 5 5 5 4 6 7 7 6 6 6 4 4 5 5 6 6 5 4 3 2 3 1 3 4 4 5 3 4 5 4 2 3 4 6 3 3 3 1
6 5 4 5 5 7 7 6 5 5 5 6 6 7 6 4 7 9 7 5 5 5 6 3 3 4 3 4 7 8 7 9 5 3 2 4 4 3 3 5 3 3 3
7 7 6 6 5 5 5 5 6 6 4 5 6 7 7 7 8 9 9 6 5 6 6 6 4 2 4 4 6 8 9 10 11 7 8 6 6 7 6 5 4 3 3
5 6 5 6 8 10 11 10 8 3 6 6 6 7 7 7 10 11 9 5 4 6 6 7 7 6 5 6 5 4 3 4 6 4 7 7 6 8 10 8 6 4 0
8 7 7 8 7 5 8 5 9 4 5 6 6 7 7 7 13 12 9 6 5 6 6 6 7 7 8 9 6 5 4 3 3 3 7 8 10 12 8 6 5 5 3
6 6 7 8 9 9 7 14 18 11 8 6 9 8 9 9 13 13 10 4 5 4 4 5 8 9 10 11 7 6 6 5 5 2 2 3 7 9 13 9 6 6 3
5 5 6 6 7 8 9 13 15 17 14 13 13 12 10 9 9 14 14 6 6 4 4 4 4 10 12 10 8 7 7 6 5 5 3 3 2 4 6 5 7 6 5
5 5 5 7 6 6 13 15 23 21 12 12 13 10 8 8 11 15 14 7 1 3 4 4 5 9 8 10 7 4 7 6 4 3 2 3 4 4 5 5 5 5 5
6 6 7 11 5 8 9 7 7 3 7 8 8 9 8 6 6 9 10 9 3 2 2 4 4 9 8 4 6 9 7 3 4 4 4 4 4 4 4 3 5 6 5
6 6 6 8 9 6 8 5 4 4 8 11 9 8 7 6 6 7 6 6 9 8 7 6 6 4 4 3 2 2 3 3 3 3 3 3 1 3 4 4 4 5 5
6 7 7 6 6 6 3 4 2 4 2 4 8 7 7 6 6 9 10 9 9 10 7 4 1 3 6 5 3 4 3 3 3 2 2 2 1 1 2 4 4 4 6
6 5 6 6 6 6 4 2 10 9 11 8 10 5 3 3 12 10 12 9 10 11 5 4 3 4 3 4 4 3 3 4 3 3 3 3 4 4 3 0 2 3 5
5 6 4 5 7 7 5 2 1 4 15 19 17 2 16 11 8 8 10 9 6 10 3 3 4 6 5 4 3 3 2 3 3 3 2 2 1 2 4 3 2 2 2
5 5 3 5 5 7 7 4 2 3 6 5 12 15 14 11 12 12 13 8 3 2 2 4 3 3 4 4 3 2 1 1 1 2 2 1 1 0 0 1 1 2 1
5 4 4 4 4 5 6 7 5 6 5 5 4 8 10 13 10 7 6 3 4 3 3 4 4 3 6 4 4 3 4 3 2 2 3 2 2 2 1 2 1 1 2
6 7 4 3 4 4 5 5 5 4 5 4 5 4 3 3 1 2 2 2 3 2 4 5 4 5 6 5 4 4 3 4 3 3 2 2 2 1 1 1 1 1 1
5 5 8 3 2 1 1 3 2 3 3 3 4 4 1 1 4 3 2 2 4 7 6 5 4 5 4 4 4 4 4 4 3 2 0 1 2 1 2 1 1 1 1
4 5 4 4 4 3 3 3 3 4 1 3 2 2 4 3 6 6 6 6 6 7 6 7 7 5 5 4 4 5 5 5 4 4 4 4 2 3 1 1 1 1 1
4 5 5 4 5 5 3 3 4 4 3 1 3 3 3 4 6 6 7 6 6 7 6 8 8 7 7 7 6 5 5 4 3 3 4 4 3 4 2 1 2 2 1
5 5 5 4 3 2 4 3 3 5 6 7 7 4 4 5 6 7 7 6 7 7 7 8 8 8 7 6 5 4 4 4 3 4 4 3 3 4 3 3 2 2 1
5 5 4 4 2 4 4 4 5 6 6 6 6 7 6 5 5 6 5 5 7 7 7 7 7 8 8 8 7 6 4 3 4 3 2 1 3 4 2 2 1 1 1
5 5 5 5 5 5 4 5 6 6 6 6 5 6 5 3 4 5 6 7 7 7 7 5 7 9 8 6 6 4 3 4 5 4 2 3 4 4 4 4 4 2 3
Wind_Direction
151 139 157 173 175 142 150 151 147 128 141 154 176 190 206 199 184 173 195 192 183 183 194 200 219 222 231 228 216 193 177 142 128 129 140 124 103 124 96 80 89 80 80
153 163 169 162 147 146 149 151 145 154 154 173 200 202 215 224 200 181 197 189 175 178 184 174 200 258 272 246 213 201 183 145 128 148 133 140 121 142 125 115 109 88 86
163 175 174 161 160 163 160 162 155 158 174 189 181 209 182 186 190 198 181 169 171 176 179 176 185 169 209 154 126 122 126 114 116 144 132 136 112 152 144 126 121 97 83
164 187 181 178 170 168 159 160 159 167 174 191 186 181 187 183 181 172 168 184 172 162 161 149 161 148 177 145 118 119 116 122 130 138 125 114 111 130 135 148 137 80 115
169 177 194 202 151 150 150 174 176 175 179 178 172 196 189 193 204 193 187 202 189 167 136 136 163 163 143 177 146 134 118 102 127 140 140 121 145 162 182 156 136 135 185
160 169 174 196 169 172 174 180 187 205 197 180 188 189 197 225 215 191 186 208 231 191 163 170 170 159 125 121 148 140 151 144 148 136 137 172 179 162 159 170 134 151 191
169 173 182 195 181 175 172 168 189 203 206 216 217 192 200 215 223 189 186 185 194 211 178 169 188 178 176 140 129 159 172 177 170 154 168 182 173 184 166 168 176 167 188
103 72 73 76 61 58 39 7 322 247 196 217 229 231 195 207 198 190 182 184 196 219 198 189 176 173 197 172 155 146 155 189 186 182 183 185 188 177 184 186 179 161 263
113 130 121 110 123 147 137 101 289 274 279 222 197 228 218 213 191 194 176 186 204 209 215 189 180 175 205 176 162 160 163 194 50 149 173 172 170 173 166 143 167 158 202
148 167 174 171 173 195 190 186 206 212 209 200 238 212 213 219 202 193 184 171 198 215 219 215 186 179 187 193 182 172 175 205 165 145 90 135 168 178 177 188 170 182 161
187 197 199 183 213 228 238 230 216 221 213 206 215 217 206 200 210 200 187 179 193 197 219 217 212 196 183 196 183 177 192 165 191 180 181 151 179 168 193 202 185 185 194
219 223 240 241 215 244 246 262 257 241 223 218 190 207 201 192 201 204 195 191 20 189 220 243 226 200 196 178 170 183 159 152 151 172 181 201 182 201 210 204 207 220 219
263 255 246 267 229 254 256 230 260 150 202 227 213 196 209 190 206 197 179 175 181 146 3 325 239 219 210 179 182 169 152 145 160 174 202 218 213 204 162 186 208 216 232
313 302 264 259 278 277 290 288 230 145 203 220 211 199 209 189 177 159 169 166 173 181 205 192 151 146 162 153 141 161 190 181 187 205 211 221 224 173 201 191 203 206 210
343 337 341 323 302 285 271 298 261 70 62 269 213 195 169 192 187 164 157 175 191 208 182 147 170 149 154 174 207 213 215 210 221 215 209 207 251 213 232 194 206 181 220
346 346 335 321 310 309 291 210 65 62 68 267 209 164 56 153 158 170 182 217 210 180 176 171 200 171 176 162 186 195 207 212 232 228 249 225 187 195 232 234 191 198 216
353 340 330 336 337 340 334 282 4 77 87 47 17 67 182 167 163 144 143 144 140 144 167 165 166 168 167 139 190 176 204 212 205 178 216 180 170 175 161 147 216 164 189
332 329 355 335 351 359 356 18 38 44 60 43 48 54 58 83 109 116 118 103 94 27 134 143 169 159 120 133 144 149 136 127 98 87 56 33 359 122 170 196 209 232 258
304 309 331 335 5 357 7 16 19 75 84 91 97 79 57 63 78 102 105 129 148 156 191 143 127 151 99 89 91 84 85 79 66 74 74 69 68 92 81 51 37 17 350
313 307 271 307 339 9 18 16 34 22 64 77 71 60 68 108 141 112 205 140 132 156 150 129 125 106 105 117 117 117 114 102 96 82 73 70 15 48 95 130 153 198 229
312 313 316 309 233 263 144 105 37 29 63 101 74 69 155 139 142 135 157 106 112 137 132 115 108 96 103 113 107 97 87 70 67 64 134 190 190 213 232 241 289 300 277
287 288 294 298 300 252 209 182 172 126 55 103 79 46 69 71 108 101 91 73 69 78 84 87 80 79 78 75 83 87 86 75 50 32 27 13 301 256 260 258 265 250 96
286 281 280 292 288 280 239 173 162 147 198 138 114 96 52 66 77 80 87 80 74 76 81 93 97 88 77 73 62 66 84 69 42 40 40 21 16 15 344 299 148 139 197
300 301 291 299 311 69 63 74 114 122 119 113 104 95 82 76 86 89 96 101 97 80 75 81 81 85 81 76 71 62 69 49 38 27 24 14 2 356 41 60 37 311 298
355 1 6 350 76 82 78 80 85 92 92 107 92 87 73 60 93 105 104 89 84 84 83 89 90 91 86 90 88 83 68 39 29 340 27 12 5 16 20 41 9 359 345
5 16 23 42 57 63 74 84 80 87 84 74 80 109 130 133 103 98 94 96 102 107 106 91 95 96 92 76 81 91 60 44 33 17 38 54 61 40 27 9 334 321 313